Zurück zum Katalog

THOR ABLESTAR DEB

AktivLEO
NORAD 357·DEBRIS·🇺🇸 United States

Gestartet Jun 29, 1961 von Cape Canaveral Space Force Station

Loading…

Nächste Überflüge (nächste 24 Stunden)

TLE

AktuellSource: Space-Track

Epoche: Sep 8, 2026, 19:04 UTC

1 00357U 61015DX  26251.79462397  .00000844  00000-0  52580-3 0  9990
2 00357  66.8088  35.6196 0010201 170.1161 190.0130 14.09706516307647

Verfolge THOR ABLESTAR DEB in Echtzeit mit AllMySat

Download on the App Store